User: anonymous   Login
Location: Frankfurt am Main
(50.1109°N, 8.6821°E)
Time: 08:44:26
(UTC+01:00)
Language:

ISS - Orbit

View from above orbital plane
View from above orbital plane
View from above satellite
View from above satellite

Ground track
Ground track

The orbit data is extracted from the following two-line orbital elements,

1 25544U 98067A   20048.45574456  .00016717  00000-0  10270-3 0  9089
2 25544  51.6403 225.8423 0005174 285.2558  74.8020 15.49136492 13299
Epoch (UTC): 17 February 2020 10:56:16
Eccentricity: 0.0005174
inclination: 51.6403°
perigee height: 416 km
apogee height: 423 km
right ascension of ascending node: 225.8423°
argument of perigee: 285.2558°
revolutions per day: 15.49136492
mean anomaly at epoch: 74.8020°
orbit number at epoch: 1329

The dashed part of the orbit path shows where the satellite is in the earth's shadow,  

DLR